Total_Precipitation_Accumulation
0.80 0.82 0.86 0.94 0.98 0.97 0.95 0.94 1.00 1.10 1.21 1.42 1.73 2.24 2.52 2.60 2.47 2.42 2.32 2.11 1.87 1.85 2.04 2.07 2.05 2.05 2.07 2.04 1.96 2.14 2.10 1.82 1.72 1.93 1.91 1.73 1.52 1.42 1.39 1.44 1.68 1.78 1.68
0.81 0.80 0.79 0.82 0.84 0.83 0.86 1.01 1.06 1.12 1.23 1.48 1.78 2.16 2.58 2.64 2.57 2.46 2.36 2.26 2.13 2.08 2.12 2.35 2.47 2.43 2.62 2.64 2.41 2.52 2.55 2.17 1.94 2.25 2.59 2.28 2.02 1.56 1.43 1.54 1.60 1.70 1.79
0.67 0.73 0.78 0.80 0.78 0.75 0.72 0.85 1.02 1.22 1.50 1.78 2.07 2.25 2.54 2.64 2.63 2.49 2.42 2.43 2.37 2.25 2.32 2.43 2.59 2.59 2.67 2.88 3.00 2.89 2.96 2.75 2.32 2.21 2.60 2.54 2.35 2.10 1.70 1.58 1.65 1.79 1.85
0.60 0.64 0.73 0.78 0.74 0.69 0.67 0.76 0.91 1.20 1.59 1.93 2.15 2.41 2.77 2.87 2.71 2.62 2.52 2.52 2.52 2.50 2.61 2.62 2.69 2.70 2.71 2.82 2.98 2.96 3.14 3.26 2.84 2.47 2.23 2.07 2.09 2.27 2.09 1.79 1.72 1.85 1.85
0.48 0.54 0.57 0.61 0.65 0.72 0.75 0.83 1.03 1.31 1.63 1.85 2.11 2.45 2.65 2.75 2.81 2.68 2.62 2.60 2.63 2.63 2.68 2.74 2.87 2.85 2.82 2.75 2.97 3.06 3.17 3.13 3.08 2.94 2.76 2.59 2.34 1.98 2.14 2.15 1.95 1.82 1.70
0.43 0.50 0.58 0.64 0.71 0.77 0.89 1.00 1.17 1.36 1.61 1.83 2.10 2.25 2.44 2.58 2.63 2.66 2.59 2.54 2.58 2.68 2.56 2.48 2.67 2.73 2.74 2.70 2.86 3.00 3.15 3.13 3.18 3.12 2.82 2.84 2.75 2.38 2.33 2.17 2.00 2.01 1.81
0.52 0.62 0.73 0.86 0.97 1.01 1.08 1.19 1.30 1.48 1.63 1.74 1.90 2.00 2.10 2.21 2.18 2.32 2.37 2.48 2.47 2.50 2.51 2.43 2.44 2.48 2.42 2.41 2.52 2.57 2.66 2.80 2.99 2.88 2.64 2.60 2.45 2.44 2.55 2.46 2.21 2.00 1.76
0.67 0.84 1.01 1.18 1.25 1.28 1.34 1.39 1.44 1.51 1.56 1.61 1.71 1.84 1.90 1.95 1.92 1.90 1.90 2.05 2.20 2.22 2.27 2.30 2.27 2.31 2.33 2.28 2.38 2.40 2.40 2.45 2.51 2.43 2.54 2.60 2.42 2.35 2.36 2.45 2.67 2.44 2.12
0.94 1.10 1.28 1.39 1.36 1.36 1.38 1.44 1.49 1.51 1.51 1.55 1.61 1.58 1.62 1.67 1.68 1.65 1.72 1.76 1.81 1.81 1.85 1.90 2.05 2.17 2.22 2.24 2.34 2.41 2.38 2.31 2.29 2.38 2.45 2.39 2.32 2.30 2.23 2.26 2.47 2.66 2.47
1.31 1.48 1.67 1.65 1.58 1.60 1.66 1.58 1.50 1.51 1.57 1.61 1.61 1.53 1.55 1.58 1.57 1.47 1.51 1.48 1.44 1.45 1.50 1.59 1.78 2.09 2.23 2.25 2.30 2.34 2.35 2.35 2.28 2.36 2.48 2.53 2.48 2.50 2.45 2.34 2.34 2.33 2.40
1.69 1.82 1.93 1.92 1.76 1.65 1.63 1.57 1.45 1.42 1.43 1.50 1.61 1.57 1.52 1.54 1.56 1.47 1.37 1.33 1.32 1.32 1.40 1.46 1.61 1.78 2.01 2.23 2.38 2.37 2.29 2.27 2.22 2.15 2.28 2.43 2.49 2.60 2.65 2.67 2.57 2.45 2.41
1.62 1.67 1.69 1.77 1.69 1.60 1.50 1.47 1.39 1.25 1.27 1.34 1.45 1.56 1.48 1.45 1.47 1.39 1.42 1.32 1.22 1.22 1.24 1.39 1.58 1.69 1.77 1.87 1.98 2.04 2.07 2.09 2.11 2.05 2.02 2.10 2.19 2.31 2.48 2.60 2.56 2.57 2.47
1.34 1.46 1.55 1.50 1.51 1.52 1.45 1.55 1.58 1.45 1.46 1.48 1.59 1.61 1.53 1.49 1.48 1.34 1.41 1.34 1.25 1.23 1.22 1.28 1.44 1.54 1.62 1.67 1.73 1.86 1.96 1.96 1.90 1.89 1.78 1.77 1.88 2.02 2.17 2.25 2.37 2.51 2.54
1.19 1.25 1.34 1.31 1.43 1.53 1.51 1.59 1.64 1.61 1.62 1.70 1.74 1.65 1.58 1.54 1.51 1.38 1.31 1.29 1.27 1.25 1.27 1.38 1.44 1.49 1.50 1.63 1.68 1.76 1.76 1.71 1.62 1.61 1.55 1.53 1.56 1.69 1.87 1.99 2.19 2.41 2.53
1.01 0.98 1.00 1.05 1.18 1.25 1.27 1.33 1.39 1.45 1.55 1.62 1.64 1.63 1.51 1.38 1.35 1.40 1.23 1.23 1.28 1.27 1.33 1.39 1.46 1.50 1.52 1.58 1.66 1.61 1.52 1.51 1.50 1.44 1.28 1.23 1.30 1.35 1.48 1.49 1.77 2.05 2.28
0.80 0.78 0.78 0.80 0.88 0.83 0.86 0.93 1.09 1.27 1.45 1.49 1.46 1.43 1.35 1.32 1.29 1.27 1.20 1.17 1.17 1.21 1.24 1.26 1.42 1.53 1.43 1.62 1.61 1.42 1.28 1.26 1.33 1.31 1.18 1.11 1.13 1.07 1.10 1.15 1.38 1.70 1.87
0.71 0.73 0.73 0.70 0.74 0.73 0.76 0.82 0.92 1.09 1.23 1.28 1.23 1.15 1.12 1.11 1.12 1.11 1.16 1.18 1.17 1.17 1.19 1.14 1.24 1.32 1.42 1.48 1.30 1.30 1.21 1.21 1.21 1.25 1.27 1.16 1.06 1.16 1.04 1.02 1.12 1.24 1.38
0.63 0.67 0.68 0.66 0.70 0.77 0.81 0.88 0.93 0.96 1.06 1.16 1.13 1.09 1.03 0.97 0.97 0.98 1.05 1.14 1.13 1.09 1.11 1.09 1.04 1.09 1.26 1.27 1.12 1.20 1.12 1.22 1.27 1.28 1.38 1.38 1.27 1.24 1.33 1.24 1.23 1.19 1.15
0.46 0.47 0.49 0.50 0.57 0.65 0.70 0.71 0.73 0.74 0.80 0.88 0.93 0.90 0.84 0.86 0.93 0.92 1.05 1.10 1.03 1.02 1.00 1.03 1.01 1.02 1.08 1.10 1.02 1.07 1.09 1.24 1.24 1.18 1.32 1.38 1.29 1.41 1.54 1.57 1.58 1.47 1.30
0.32 0.30 0.34 0.36 0.42 0.50 0.63 0.67 0.63 0.56 0.59 0.65 0.67 0.73 0.73 0.75 0.82 0.91 1.00 1.04 0.99 1.02 0.98 0.94 0.91 0.90 0.91 1.00 0.91 1.01 1.09 1.18 1.20 1.21 1.25 1.45 1.36 1.37 1.38 1.41 1.52 1.47 1.29
0.29 0.28 0.30 0.34 0.40 0.46 0.55 0.59 0.60 0.56 0.56 0.59 0.59 0.62 0.64 0.69 0.80 0.88 0.84 0.84 0.88 0.94 0.94 0.96 0.90 0.85 0.90 1.01 1.01 1.06 1.07 1.14 1.19 1.28 1.31 1.30 1.44 1.30 1.26 1.24 1.20 1.30 1.30
0.25 0.26 0.28 0.33 0.42 0.44 0.45 0.48 0.49 0.48 0.51 0.52 0.56 0.53 0.51 0.53 0.61 0.69 0.77 0.77 0.77 0.82 0.81 0.82 0.81 0.78 0.86 0.92 0.90 0.92 0.98 1.08 1.07 1.12 1.13 1.11 1.26 1.12 1.06 0.99 1.03 1.15 1.22
0.22 0.25 0.31 0.37 0.43 0.46 0.44 0.42 0.42 0.44 0.49 0.54 0.56 0.53 0.50 0.50 0.54 0.62 0.73 0.80 0.83 0.82 0.80 0.74 0.71 0.72 0.74 0.80 0.83 0.79 0.79 0.85 0.86 0.85 1.00 1.04 1.04 0.99 0.90 0.96 1.01 1.04 1.07
0.20 0.24 0.32 0.36 0.42 0.43 0.43 0.42 0.42 0.41 0.45 0.50 0.55 0.55 0.56 0.56 0.56 0.59 0.65 0.79 0.85 0.78 0.72 0.71 0.71 0.75 0.76 0.72 0.71 0.73 0.72 0.73 0.79 0.79 0.87 0.92 0.89 0.89 0.89 0.93 0.97 1.00 1.05
0.20 0.23 0.29 0.35 0.40 0.45 0.44 0.43 0.43 0.40 0.41 0.46 0.50 0.50 0.53 0.58 0.56 0.52 0.53 0.63 0.70 0.75 0.79 0.79 0.79 0.82 0.83 0.75 0.70 0.66 0.70 0.74 0.82 0.90 0.85 0.83 0.83 0.84 0.91 0.93 0.94 0.99 1.05
0.25 0.26 0.28 0.33 0.35 0.41 0.47 0.48 0.51 0.49 0.46 0.46 0.49 0.50 0.52 0.55 0.55 0.52 0.52 0.56 0.58 0.67 0.71 0.72 0.74 0.67 0.64 0.66 0.61 0.59 0.64 0.71 0.79 0.92 0.96 0.98 1.03 1.06 1.06 1.03 0.95 0.91 0.94